TimeAKDT,TemperatureF,Dew PointF,Humidity,Sea Level PressureIn,VisibilityMPH,Wind Direction,Wind SpeedMPH,Gust SpeedMPH,PrecipitationIn,Events,Conditions,WindDirDegrees,DateUTC
12:16 AM,53.6,42.8,67,29.65,10.0,East,12.7,-,N/A,,Clear,90,2013-08-22 08:16:00
12:36 AM,53.6,41.0,62,29.65,10.0,East,9.2,-,N/A,,Clear,100,2013-08-22 08:36:00
12:56 AM,51.8,41.0,67,29.65,10.0,East,11.5,-,N/A,,Clear,100,2013-08-22 08:56:00
1:16 AM,50.0,41.0,71,29.66,10.0,South,4.6,-,N/A,,Clear,180,2013-08-22 09:16:00
1:36 AM,51.8,41.0,67,29.66,10.0,SSE,4.6,-,N/A,,Clear,150,2013-08-22 09:36:00
1:56 AM,51.8,41.0,67,29.67,10.0,SSW,6.9,-,N/A,,Mostly Cloudy,210,2013-08-22 09:56:00
2:16 AM,50.0,41.0,71,29.66,10.0,SSE,4.6,-,N/A,,Overcast,160,2013-08-22 10:16:00
2:36 AM,50.0,41.0,71,29.66,10.0,SSE,6.9,-,N/A,,Mostly Cloudy,160,2013-08-22 10:36:00
2:56 AM,48.2,41.0,76,29.66,10.0,SSW,5.8,-,N/A,,Partly Cloudy,210,2013-08-22 10:56:00
3:16 AM,48.2,41.0,76,29.66,10.0,SSW,4.6,-,N/A,,Partly Cloudy,200,2013-08-22 11:16:00
3:36 AM,48.2,39.2,71,29.66,10.0,South,3.5,-,N/A,,Mostly Cloudy,190,2013-08-22 11:36:00
3:56 AM,48.2,39.2,71,29.65,10.0,South,4.6,-,N/A,,Overcast,180,2013-08-22 11:56:00
4:16 AM,48.2,39.2,71,29.64,10.0,SW,3.5,-,N/A,,Overcast,230,2013-08-22 12:16:00
4:36 AM,48.2,41.0,76,29.64,10.0,SSW,4.6,-,N/A,,Overcast,200,2013-08-22 12:36:00
4:56 AM,46.4,41.0,81,29.64,10.0,SW,5.8,-,N/A,,Overcast,220,2013-08-22 12:56:00
5:16 AM,44.6,39.2,81,29.64,10.0,South,6.9,-,N/A,,Scattered Clouds,190,2013-08-22 13:16:00
5:36 AM,44.6,39.2,81,29.64,10.0,South,4.6,-,N/A,,Clear,180,2013-08-22 13:36:00
5:56 AM,42.8,37.4,81,29.64,10.0,South,5.8,-,N/A,,Clear,190,2013-08-22 13:56:00
6:16 AM,42.8,37.4,81,29.63,10.0,South,4.6,-,N/A,,Scattered Clouds,170,2013-08-22 14:16:00
6:36 AM,42.8,39.2,87,29.63,10.0,South,4.6,-,N/A,,Overcast,180,2013-08-22 14:36:00
6:56 AM,42.8,39.2,87,29.63,10.0,South,5.8,-,N/A,,Overcast,180,2013-08-22 14:56:00
7:16 AM,44.6,41.0,87,29.63,10.0,South,6.9,-,N/A,,Overcast,180,2013-08-22 15:16:00
7:36 AM,44.6,39.2,81,29.63,10.0,South,5.8,-,N/A,,Overcast,180,2013-08-22 15:36:00
7:56 AM,46.4,39.2,76,29.62,10.0,South,4.6,-,N/A,,Overcast,170,2013-08-22 15:56:00
8:16 AM,46.4,42.8,87,29.63,10.0,South,3.5,-,N/A,,Overcast,190,2013-08-22 16:16:00
8:36 AM,48.2,41.0,76,29.61,10.0,SSE,6.9,-,N/A,,Overcast,150,2013-08-22 16:36:00
8:56 AM,50.0,41.0,71,29.61,10.0,South,5.8,-,N/A,,Mostly Cloudy,190,2013-08-22 16:56:00
9:16 AM,48.2,41.0,76,29.61,10.0,South,4.6,-,N/A,,Mostly Cloudy,190,2013-08-22 17:16:00
9:36 AM,50.0,41.0,71,29.61,10.0,South,5.8,-,N/A,,Overcast,190,2013-08-22 17:36:00
9:56 AM,50.0,41.0,71,29.61,10.0,South,3.5,-,N/A,,Overcast,180,2013-08-22 17:56:00
10:16 AM,51.8,42.8,71,29.60,10.0,South,4.6,-,N/A,,Overcast,170,2013-08-22 18:16:00
10:36 AM,51.8,42.8,71,29.60,10.0,SSE,4.6,-,N/A,,Overcast,150,2013-08-22 18:36:00
10:56 AM,51.8,42.8,71,29.60,10.0,Calm,Calm,-,N/A,,Overcast,0,2013-08-22 18:56:00
11:16 AM,53.6,42.8,67,29.60,9.0,SSW,3.5,-,N/A,,Overcast,200,2013-08-22 19:16:00
11:36 AM,53.6,42.8,67,29.59,8.0,South,4.6,-,N/A,,Overcast,180,2013-08-22 19:36:00
11:56 AM,55.4,42.8,63,29.59,10.0,South,4.6,-,N/A,,Overcast,190,2013-08-22 19:56:00
12:16 PM,55.4,42.8,63,29.59,10.0,SE,5.8,-,N/A,,Overcast,130,2013-08-22 20:16:00
12:36 PM,57.2,44.6,63,29.59,10.0,SE,5.8,-,N/A,,Overcast,130,2013-08-22 20:36:00
12:56 PM,57.2,44.6,63,29.59,10.0,SE,6.9,-,N/A,,Overcast,140,2013-08-22 20:56:00
1:16 PM,57.2,44.6,63,29.58,10.0,SE,6.9,-,N/A,,Overcast,140,2013-08-22 21:16:00
1:36 PM,57.2,44.6,63,29.58,10.0,SE,8.1,-,N/A,,Overcast,140,2013-08-22 21:36:00
1:56 PM,55.4,46.4,72,29.58,10.0,SE,4.6,-,N/A,,Overcast,130,2013-08-22 21:56:00
2:16 PM,55.4,48.2,77,29.57,10.0,East,4.6,-,N/A,,Overcast,100,2013-08-22 22:16:00
2:36 PM,55.4,46.4,72,29.58,9.0,Calm,Calm,-,N/A,,Overcast,0,2013-08-22 22:36:00
2:56 PM,53.6,48.2,82,29.59,10.0,West,3.5,-,0.02,,Overcast,260,2013-08-22 22:56:00
3:16 PM,53.6,50.0,88,29.59,10.0,WNW,3.5,-,0.03,,Mostly Cloudy,290,2013-08-22 23:16:00
3:36 PM,51.8,50.0,94,29.58,10.0,Calm,Calm,-,0.04,,Overcast,0,2013-08-22 23:36:00
3:56 PM,53.6,50.0,88,29.58,9.0,East,3.5,-,0.06,,Overcast,80,2013-08-22 23:56:00
4:16 PM,53.6,50.0,88,29.58,7.0,Calm,Calm,-,0.01,,Overcast,0,2013-08-23 00:16:00
4:36 PM,53.6,50.0,88,29.58,3.0,Calm,Calm,-,0.05,,Overcast,0,2013-08-23 00:36:00
4:56 PM,53.6,50.0,88,29.57,8.0,Calm,Calm,-,0.07,,Overcast,0,2013-08-23 00:56:00
5:16 PM,53.6,50.0,88,29.57,10.0,East,5.8,-,N/A,,Overcast,90,2013-08-23 01:16:00
5:36 PM,53.6,50.0,88,29.57,10.0,East,6.9,-,0.01,,Overcast,80,2013-08-23 01:36:00
5:56 PM,53.6,50.0,88,29.57,10.0,ENE,6.9,-,0.02,,Overcast,70,2013-08-23 01:56:00
6:16 PM,53.6,50.0,88,29.56,10.0,East,5.8,-,N/A,,Overcast,80,2013-08-23 02:16:00
6:36 PM,53.6,50.0,88,29.57,9.0,ENE,3.5,-,0.02,,Overcast,70,2013-08-23 02:36:00
6:56 PM,53.6,50.0,88,29.57,8.0,East,3.5,-,0.04,,Overcast,80,2013-08-23 02:56:00
7:16 PM,51.8,48.2,88,29.57,10.0,East,3.5,-,0.01,,Overcast,90,2013-08-23 03:16:00
7:36 PM,51.8,48.2,88,29.58,9.0,Calm,Calm,-,0.02,,Overcast,0,2013-08-23 03:36:00
7:56 PM,51.8,48.2,88,29.58,10.0,Calm,Calm,-,0.02,,Overcast,0,2013-08-23 03:56:00
8:16 PM,51.8,48.2,88,29.58,10.0,Calm,Calm,-,0.01,,Overcast,0,2013-08-23 04:16:00
8:36 PM,51.8,48.2,88,29.58,10.0,NNW,4.6,-,0.01,,Overcast,340,2013-08-23 04:36:00
8:56 PM,51.8,48.2,88,29.58,10.0,North,3.5,-,0.01,,Overcast,350,2013-08-23 04:56:00
9:16 PM,51.8,48.2,88,29.59,10.0,Calm,Calm,-,N/A,,Overcast,0,2013-08-23 05:16:00
9:36 PM,51.8,46.4,82,29.59,10.0,Calm,Calm,-,N/A,,Overcast,0,2013-08-23 05:36:00
9:56 PM,51.8,50.0,94,29.59,10.0,NNW,4.6,-,N/A,,Overcast,340,2013-08-23 05:56:00
10:16 PM,51.8,50.0,94,29.60,10.0,NNW,3.5,-,N/A,,Mostly Cloudy,340,2013-08-23 06:16:00
10:36 PM,51.8,48.2,88,29.60,10.0,NNW,4.6,-,N/A,,Overcast,340,2013-08-23 06:36:00
10:56 PM,51.8,48.2,88,29.61,10.0,North,4.6,-,N/A,,Overcast,350,2013-08-23 06:56:00
11:16 PM,51.8,48.2,88,29.61,10.0,NNW,3.5,-,N/A,,Overcast,330,2013-08-23 07:16:00
11:36 PM,51.8,48.2,88,29.62,10.0,Calm,Calm,-,N/A,,Overcast,0,2013-08-23 07:36:00
11:56 PM,51.8,48.2,88,29.62,10.0,NW,5.8,-,N/A,,Overcast,310,2013-08-23 07:56:00